Location: Domont
(49.0278°N, 2.3264°E)
Time: 11:44:25
(UTC+00:00)

NOAA 18 - Pass Details

Date: 28 June 2022
Orbit: 839 x 860 km, 98.9° (Epoch: 11 August)

Event Time Altitude Azimuth Distance (km) Brightness Sun altitude
Exits shadow 23:15:15 - 231° (SW) 3,125 7.9 -17.2°
Reaches altitude 10° 23:18:46 10° 261° (W) 2,485 7.6 -17.3°
Maximum altitude 23:20:11 11° 276° (W) 2,422 7.7 -17.3°
Drops below altitude 10° 23:21:37 10° 291° (WNW) 2,493 8.0 -17.4°
Sets 23:26:16 0° 327° (NNW) 3,443 9.5 -17.5°
